China Lake, CA

1:31 PM PDT on April 24, 2017 (GMT -0700)
China Lake NAWS

Weather History for KNID - September, 2011

Change the Weather History Date:

Thursday, September 8, 2011

  Actual Average Record
Temperature  
Mean Temperature 85 °F -  
Max Temperature 102 °F 93 °F 104 °F (2012)
Min Temperature 68 °F 66 °F 59 °F (2005)
Cooling Degree Days 20    
Growing Degree Days 35 (Base 50)    
Moisture  
Dew Point 38 °F    
Average Humidity 21    
Maximum Humidity 35    
Minimum Humidity 8    
Precipitation  
Precipitation 0.00 in - - ()
Sea Level Pressure  
Sea Level Pressure 29.88 in    
Wind  
Wind Speed 6 mph (SSW)    
Max Wind Speed 14 mph    
Max Gust Speed 22 mph    
Visibility 10 miles    
Events      
Averages and records for this station are not official NWS values.
T = Trace of Precipitation, MM = Missing Value Source: NWS Daily Summary

Daily Weather History Graph

Daily Weather History Graph

Search for Another Location

Airport or City:

Trip Planner

Search our weather history database for the weather conditions in past years. The results will help you decide how hot, cold, wet, or windy it might be!

Date:

Astronomy

Sep. 08, 2011 Rise Set
Actual Time 6:27 AM PDT 7:08 PM PDT
Civil Twilight 6:02 AM PDT 7:34 PM PDT
Nautical Twilight 5:31 AM PDT 8:04 PM PDT
Astronomical Twilight 5:00 AM PDT 8:35 PM PDT
Moon 5:00 PM PDT (9/8) 2:57 AM PDT (9/8)
Length of Visible Light 13h 31m
Length of Day
12h 40m
Waxing Gibbous, 88% of the Moon is Illuminated
Sep 8
Waxing Gibbous
Sep 12
Full
Sep 20
Last Quarter
Sep 27
New
Oct 3
First Quarter

Hourly Weather History & Observations

Time (PDT) Temp. Dew Point Humidity Pressure Visibility Wind Dir Wind Speed Gust Speed Precip Events Conditions
12:56 AM 80.1 °F 41.0 °F 25% 29.94 in 10.0 mi SSW 8.1 mph - N/A   Clear
1:56 AM 75.9 °F 41.0 °F 29% 29.94 in 10.0 mi WSW 3.5 mph - N/A   Clear
2:56 AM 73.0 °F 39.9 °F 30% 29.94 in 10.0 mi East 3.5 mph - N/A   Clear
3:56 AM 73.9 °F 41.0 °F 30% 29.94 in 10.0 mi SSW 5.8 mph - N/A   Clear
4:56 AM 72.0 °F 41.0 °F 33% 29.94 in 10.0 mi WNW 5.8 mph - N/A   Clear
5:56 AM 70.0 °F 41.0 °F 35% 29.95 in 10.0 mi Calm Calm - N/A   Partly Cloudy
6:56 AM 68.0 °F 39.0 °F 35% 29.96 in 10.0 mi Calm Calm - N/A   Partly Cloudy
7:56 AM 75.0 °F 39.9 °F 28% 29.97 in 10.0 mi WSW 3.5 mph - N/A   Partly Cloudy
8:56 AM 82.0 °F 41.0 °F 23% 29.97 in 10.0 mi West 3.5 mph - N/A   Clear
9:56 AM 89.1 °F 41.0 °F 19% 29.96 in 10.0 mi Calm Calm - N/A   Clear
10:56 AM 95.0 °F 42.1 °F 16% 29.94 in 10.0 mi ENE 4.6 mph - N/A   Partly Cloudy
11:56 AM 98.1 °F 44.1 °F 16% 29.91 in 10.0 mi Calm Calm - N/A   Partly Cloudy
12:56 PM 100.0 °F 43.0 °F 14% 29.88 in 10.0 mi Calm Calm - N/A   Partly Cloudy
1:56 PM 102.0 °F 30.9 °F 8% 29.86 in 10.0 mi SSW 10.4 mph 21.9 mph N/A   Partly Cloudy
2:56 PM 102.0 °F 30.9 °F 8% 29.83 in 10.0 mi SSW 11.5 mph - N/A   Partly Cloudy
3:56 PM 102.0 °F 30.9 °F 8% 29.79 in 10.0 mi SSW 13.8 mph - N/A   Scattered Clouds
4:56 PM 100.9 °F 30.9 °F 9% 29.78 in 10.0 mi South 11.5 mph - N/A   Scattered Clouds
5:56 PM 99.0 °F 33.1 °F 10% 29.78 in 10.0 mi WSW 8.1 mph - N/A   Scattered Clouds
6:56 PM 93.0 °F 37.9 °F 15% 29.79 in 10.0 mi West 11.5 mph - N/A   Scattered Clouds
7:56 PM 88.0 °F 37.9 °F 17% 29.81 in 10.0 mi South 5.8 mph - N/A   Scattered Clouds
8:56 PM 84.0 °F 39.0 °F 20% 29.83 in 10.0 mi South 9.2 mph - N/A   Partly Cloudy
9:56 PM 82.0 °F 39.0 °F 22% 29.83 in 10.0 mi SE 9.2 mph - N/A   Partly Cloudy
10:56 PM 80.1 °F 39.0 °F 23% 29.84 in 10.0 mi SE 5.8 mph - N/A   Clear
11:56 PM 78.1 °F 39.0 °F 25% 29.85 in 10.0 mi South 5.8 mph - N/A   Clear